Regional Weather Roundup
Issued by NWS

Home | Current Version | Previous Version | Text Only | Print | Product List | Glossary Off
Versions: 1 2 3 4 5 6 7 8 9 10 11 12 13 14 15 16 17 18 19 20 21 22 23 24 25 26 27 28 29 30 31 32 33 34 35 36 37 38 39 40 41 42 43 44 45 46 47 48 49 50

000
ASUS43 KIND 270459
RWRIN

WEATHER ROUNDUP FOR INDIANA
NATIONAL WEATHER SERVICE INDIANAPOLIS IN
100 AM EDT SAT MAY 27 2017

NOTE: "FAIR" INDICATES FEW OR NO CLOUDS BELOW 12,000 FEET WITH NO
SIGNIFICANT WEATHER AND/OR OBSTRUCTIONS TO VISIBILITY.

* - STATION DOES NOT REPORT WEATHER SUCH AS PRECIPITATION OR FOG.

+ - STATION NOT QUALITY CONTROLLED BY THE NATIONAL WEATHER SERVICE.
    USE DATA WITH CAUTION...ESPECIALLY DEWPOINT AND RELATIVE
    HUMIDITY OBSERVATIONS.

INZ001>003-010>013-019-020-270600-
NORTHWEST INDIANA

CITY           SKY/WX    TMP DP  RH WIND       PRES   REMARKS
MICHIGAN CITY+ CLOUDY    59  59 100 E3        29.84F
MONTICELLO +   CLOUDY    64  63  95 E3        29.80S
RENSSELAER +   CLOUDY    63  61  94 N7        29.81S

$$

LMZ046-743>745-270600-
SOUTHERN LAKE MICHIGAN

STATION/POSITION TIME  TEMP    WIND        PRES    WAVE
                       AIR SEA DIR/SP/G            HT
                 (UTC) (F)     (DEG/KT/KT) (MB)    (FT)
BURNS HARBOR     0440   56      70/ 10/ 12 1010.8S
MICHIGAN CITY    0430   59      60/  8/  9   N/A
5NW MICH CITY    0450   54 53   60/  8/ 10   N/A     2

$$

INZ004-005-014>016-021>024-270600-
NORTH CENTRAL INDIANA

CITY           SKY/WX    TMP DP  RH WIND       PRES   REMARKS
GOSHEN         CLOUDY    59  55  87 NE6       29.85F
SOUTH BEND     CLOUDY    59  58  96 E7        29.85S

$$

INZ006>009-017-018-025>027-270600-
NORTHEAST INDIANA

CITY           SKY/WX    TMP DP  RH WIND       PRES   REMARKS
ANGOLA *+      MOCLDY    57  57 100 E3        29.87R
FORT WAYNE     LGT RAIN  62  59  90 W9        29.84F
KENDALLVILLE + DRIZZLE   58  58 100 NE7       29.87S

$$

INZ028-029-035-036-043>045-051>053-270600-
WEST CENTRAL INDIANA

CITY           SKY/WX    TMP DP  RH WIND       PRES   REMARKS
CRAWFORDSVL +  CLOUDY   N/A N/A N/A CALM      29.80R
GREENCASTLE +  MOCLDY    70  63  78 SW3       29.83R
LAFAYETTE      CLOUDY    66  65  96 CALM      29.79R
TERRE HAUTE    CLOUDY    73  64  73 SW7       29.82S

$$

INZ030>032-037>040-046>048-054>057-064-065-270600-
CENTRAL INDIANA

CITY           SKY/WX    TMP DP  RH WIND       PRES   REMARKS
GREENWOOD *+   PTCLDY    72  61  67 SW8       29.82R
INDIANAPOLIS   PTCLDY    69  63  81 SW10      29.80S
-EAGLE CREEK   CLEAR     68  63  84 MISG      29.80R
KOKOMO +       LGT RAIN  66  64  93 E5        29.83R
SHELBYVILLE    CLOUDY    73  61  65 SW9       29.80R

$$

INZ033-034-041-042-049-050-058-059-270600-
EAST CENTRAL INDIANA

CITY           SKY/WX    TMP DP  RH WIND       PRES   REMARKS
MUNCIE         CLOUDY    68  63  84 S7        29.82S
RICHMOND +     CLOUDY    61  59  94 E9        29.86R

$$

INZ060-061-067>069-081>083-085>088-270600-
SOUTHWEST INDIANA

CITY           SKY/WX    TMP DP  RH WIND       PRES   REMARKS
EVANSVILLE     MOCLDY    73  66  78 MISG      29.87R
HUNTINGBURG *+ MOCLDY    72  66  81 SW9       29.86S

$$

INZ062-063-066-070>080-084-089>092-270600-
SOUTH CENTRAL AND SOUTHEAST INDIANA

CITY           SKY/WX    TMP DP  RH WIND       PRES   REMARKS
BLOOMINGTON    CLOUDY    73  63  70 SW7       29.83S
MADISON *+     CLOUDY    72  63  73 S6        29.86F
SEYMOUR +      CLOUDY    73  61  64 SW12      29.82F

$$





USA.gov is the U.S. government's official web portal to all federal, state and local government web resources and services.